EW1525 Weather Reports


time (UTC)temp
F
wind
direction
speed
knots
gust
knots
rain 1hr
in
rain 24hr
in
rain mn
in
humidity
%
barometer
mb
20260507074503 56 294 0.9 4.3 0.17 0.30 0.17 1 1007.1
20260507074004 56 297 1.7 4.3 0.12 0.25 0.12 1 1006.5
20260507073503 56 303 0.9 4.3 0.05 0.18 0.05 1 1006.0
20260507072504 56 0 0.0 1.7 0.00 0.13 0.00 1 1005.5
20260507072003 56 0 0.0 0.9 0.00 0.13 0.00 1 1005.5
20260507071504 56 0 0.0 0.0 0.00 0.13 0.00 1 1005.5
20260507070503 56 0 0.0 0.0 0.00 0.13 0.00 1 1005.3
20260507070008 56 0 0.0 0.0 0.00 0.13 0.00 1 1005.5
20260507065503 56 0 0.0 0.0 0.00 0.13 0.00 1 1005.6
20260507065004 56 0 0.0 0.0 0.00 0.13 0.00 1 1005.6
20260507064503 56 0 0.0 0.0 0.00 0.13 0.00 1 1005.7
20260507064003 56 0 0.0 0.0 0.00 0.13 0.00 1 1005.7
20260507062503 56 0 0.0 0.0 0.00 0.13 0.00 1 1005.8
20260507061503 56 0 0.0 0.0 0.00 0.13 0.00 1 1005.6
20260507060503 56 0 0.0 0.0 0.00 0.13 0.00 1 1005.9
20260507060004 56 0 0.0 0.0 0.00 0.13 0.00 1 1006.0
20260507055504 56 0 0.0 0.0 0.00 0.13 0.00 1 1006.0
20260507053503 56 0 0.0 0.0 0.00 0.13 0.00 1 1006.4
20260507053004 56 0 0.0 0.9 0.00 0.13 0.00 1 1006.3
20260507052003 56 0 0.0 0.9 0.00 0.13 0.00 1 1006.5
20260507051503 56 0 0.0 2.6 0.00 0.13 0.00 1 1006.5
20260507051003 56 0 0.0 2.6 0.00 0.13 0.00 1 1006.6
20260507050504 56 0 0.0 2.6 0.00 0.13 0.00 1 1006.6
20260507045503 56 0 0.0 4.3 0.00 0.13 0.00 1 1006.5
20260507045003 56 0 0.0 4.3 0.00 0.13 0.00 1 1006.6
20260507044503 56 0 0.0 1.7 0.00 0.13 0.00 1 1006.6
20260507044003 56 0 0.0 1.7 0.00 0.13 0.00 1 1006.6
20260507043503 56 0 0.0 0.9 0.00 0.13 0.00 1 1006.6
20260507043004 56 0 0.0 2.6 0.00 0.13 0.00 1 1006.5
20260507042503 56 0 0.0 2.6 0.00 0.13 0.00 1 1006.5
20260507042004 56 0 0.0 0.9 0.00 0.13 0.00 1 1006.5
20260507041503 56 0 0.0 1.7 0.00 0.13 0.00 1 1006.4
20260507040503 56 0 0.0 2.6 0.00 0.13 0.00 1 1006.5
20260507040004 56 0 0.0 2.6 0.00 0.13 0.00 1 1006.5
20260507035504 56 0 0.0 2.6 0.00 0.13 0.13 1 1006.3
20260507035004 56 0 0.0 1.7 0.00 0.13 0.13 1 1006.4
20260507034503 56 167 0.9 4.3 0.00 0.13 0.13 1 1006.5
20260507034003 56 169 0.9 4.3 0.00 0.13 0.13 1 1006.5
20260507033503 56 0 0.0 1.7 0.00 0.13 0.13 1 1006.7
20260507033004 56 165 0.9 4.3 0.00 0.13 0.13 1 1006.9
20260507032503 56 169 0.9 4.3 0.00 0.13 0.13 1 1007.0
20260507032003 56 173 0.9 4.3 0.00 0.13 0.13 1 1006.8
20260507031503 56 175 0.9 6.1 0.00 0.13 0.13 1 1006.8
20260507030003 56 176 0.9 6.1 0.00 0.13 0.13 1 1006.6
20260507025504 56 187 0.9 5.2 0.00 0.13 0.13 1 1006.7
20260507025003 56 189 0.9 5.2 0.00 0.13 0.13 1 1006.6
20260507024503 56 181 0.9 3.5 0.00 0.13 0.13 1 1006.5
20260507024003 56 183 0.9 5.2 0.00 0.13 0.13 1 1006.6
20260507023503 56 184 0.9 5.2 0.00 0.13 0.13 1 1006.7
20260507022503 56 189 0.9 4.3 0.00 0.13 0.13 1 1006.6
20260507022003 56 0 0.0 3.5 0.00 0.13 0.13 1 1006.6
20260507021004 56 0 0.0 4.3 0.00 0.13 0.13 1 1006.7
20260507020503 56 174 0.9 4.3 0.00 0.13 0.13 1 1006.7
20260507020003 56 171 0.9 4.3 0.00 0.13 0.13 1 1006.8
20260507015004 56 172 0.9 5.2 0.00 0.13 0.13 1 1007.0
20260507014503 56 174 0.9 5.2 0.00 0.13 0.13 1 1007.1
20260507014003 56 155 0.9 7.0 0.00 0.13 0.13 1 1007.2
20260507013503 56 168 0.9 7.0 0.00 0.13 0.13 1 1006.9
20260507013004 56 0 0.0 4.3 0.00 0.13 0.13 1 1007.0
20260507012503 56 177 0.9 4.3 0.00 0.13 0.13 1 1007.2
20260507011503 56 176 0.9 5.2 0.00 0.13 0.13 1 1007.2
20260507011004 56 177 0.9 6.1 0.00 0.13 0.13 1 1007.2
20260507010503 56 169 0.9 6.1 0.00 0.13 0.13 1 1007.3
20260507010004 56 0 0.0 3.5 0.00 0.13 0.13 1 1007.4
20260507005503 56 174 0.9 7.8 0.00 0.13 0.13 1 1007.3
20260507005004 56 183 0.9 7.8 0.00 0.13 0.13 1 1007.3
20260507004503 56 188 1.7 7.8 0.00 0.13 0.13 1 1007.3
20260507004004 56 189 0.9 4.3 0.00 0.13 0.13 1 1007.3
20260507003504 56 179 0.9 4.3 0.00 0.13 0.13 1 1007.2
20260507003004 56 179 0.9 4.3 0.00 0.13 0.13 1 1007.2
20260507002503 56 191 0.9 7.0 0.01 0.13 0.13 1 1007.3
20260507002004 56 185 1.7 7.0 0.02 0.13 0.13 1 1007.2
20260507001503 56 179 1.7 7.8 0.02 0.13 0.13 1 1007.2
20260507001003 56 183 1.7 7.8 0.02 0.13 0.13 1 1007.2
20260507000503 56 187 1.7 6.1 0.02 0.13 0.13 1 1007.2
20260507000004 56 187 1.7 8.7 0.02 0.13 0.13 1 1007.2
20260506235504 56 187 1.7 8.7 0.03 0.13 0.13 1 1007.1
20260506235003 56 191 1.7 7.8 0.03 0.13 0.13 1 1007.2
20260506234503 56 190 1.7 7.0 0.04 0.13 0.13 1 1007.1
20260506234004 56 187 1.7 7.0 0.04 0.13 0.13 1 1007.2
20260506233503 56 181 1.7 8.7 0.05 0.13 0.13 1 1007.2
20260506233003 56 181 1.7 8.7 0.05 0.13 0.13 1 1007.2
20260506232503 56 186 1.7 6.1 0.06 0.12 0.12 1 1007.3
20260506232004 56 189 1.7 6.1 0.05 0.11 0.11 1 1007.3
20260506231504 56 187 1.7 6.1 0.06 0.11 0.11 1 1007.3
20260506231003 56 183 1.7 8.7 0.06 0.11 0.11 1 1007.3
20260506230503 56 188 2.6 8.7 0.06 0.11 0.11 1 1007.2
20260506230004 56 189 1.7 6.1 0.06 0.10 0.10 1 1007.3
20260506225504 56 184 1.7 7.8 0.06 0.10 0.10 1 1007.2
20260506225003 56 183 1.7 7.8 0.05 0.09 0.09 1 1007.1